User: anonymous   Login
Location: Unspecified
(0.0000°N, 0.0000°E)
Time: 21:59:21
(UTC+01:00)
Language:

KMS 4 - Orbit

View from above orbital plane
View from above orbital plane
View from above satellite
View from above satellite

Ground track
Ground track

The orbit data is extracted from the following two-line orbital elements,

1 41332U 16009A   18344.44920162  .00001601  00000-0  52959-4 0  9999
2 41332  97.3900  48.4407 0021905 252.0713 203.3483 15.32654821158674
Epoch (UTC): 10 December 2018 10:46:51
Eccentricity: 0.0021905
inclination: 97.3900°
perigee height: 453 km
apogee height: 483 km
right ascension of ascending node: 48.4407°
argument of perigee: 252.0713°
revolutions per day: 15.32654821
mean anomaly at epoch: 203.3483°
orbit number at epoch: 15867

The dashed part of the orbit path shows where the satellite is in the earth's shadow,  

DLR